Wind_Speed
21 22 21 12 7 7 9 7 4 4 5 7 5 4 7 10 9 12 12 6 5 3 2 2 2 6 7 9 13 14 13 10 7 3 4 5 11 14 21 29 26 26 26 23 23 23 22 21 20 21 19 20 19 18 17 15 15 14 13 13 12 12 12 11 10 10 10 9 9 8 8 8 9 11 13 13 12 11 11 11 11 12 13 14 15 16 16 16 14 14 14 13 13 15 16 17 17
22 22 24 17 11 9 5 5 5 5 6 7 6 3 5 8 6 9 10 9 6 3 3 1 2 5 3 8 12 13 13 12 10 7 6 12 14 15 23 25 24 26 25 23 23 23 22 22 21 21 20 20 19 19 18 15 15 14 14 14 13 12 12 11 10 10 10 9 8 8 7 8 8 10 13 12 11 11 11 11 11 11 12 13 14 15 16 15 15 14 13 12 13 15 16 16 16
21 23 22 18 8 8 4 6 6 6 7 7 5 2 2 5 7 9 11 5 5 5 7 3 3 2 2 8 11 9 8 10 12 9 7 14 13 14 21 22 23 24 24 23 22 22 22 22 21 21 20 20 20 19 18 16 15 15 14 14 13 13 12 11 11 11 10 9 8 7 8 8 9 11 12 11 11 11 11 11 10 11 12 12 14 14 15 15 14 13 12 11 13 14 14 15 15
19 21 16 12 7 5 5 6 7 8 8 7 5 4 6 3 5 4 11 5 1 4 4 6 5 2 7 10 11 9 9 8 10 10 8 12 13 16 21 21 22 22 23 23 21 21 22 23 21 21 20 20 21 20 18 16 15 15 14 14 13 13 12 11 11 11 10 9 8 7 8 8 9 10 10 10 11 11 11 10 10 12 12 12 13 13 13 12 12 12 11 11 13 14 14 14 13
18 20 14 8 5 4 5 5 6 8 8 5 4 3 8 4 4 3 6 2 3 2 1 5 5 5 11 12 7 6 7 8 9 9 10 14 18 19 21 21 20 20 22 22 21 21 22 22 21 21 20 20 22 21 19 16 16 15 14 14 13 13 12 11 11 10 10 9 8 7 7 8 9 8 8 9 10 11 11 11 11 11 11 11 12 12 11 11 11 10 10 11 14 14 14 13 12
17 18 14 8 4 4 4 7 7 8 8 3 2 2 10 7 0 3 3 3 4 1 2 2 4 10 9 11 10 7 6 5 7 7 12 18 20 21 21 20 19 20 22 22 21 20 22 21 20 21 20 20 22 20 18 17 16 15 14 14 13 13 12 11 11 10 10 9 8 7 7 8 8 7 7 8 8 8 10 12 12 11 11 10 10 10 10 10 9 8 8 11 13 13 13 12 12
13 11 7 6 4 5 6 9 8 9 6 1 2 4 10 3 4 4 5 6 6 6 3 2 6 12 8 8 8 10 10 6 9 10 16 20 21 21 19 19 20 22 22 22 20 20 21 20 19 20 20 21 22 20 17 17 16 15 14 14 14 13 11 11 11 11 11 9 8 7 8 8 8 7 6 6 7 8 10 11 11 12 11 10 9 9 9 9 8 7 8 9 11 12 12 12 11
15 6 2 4 5 5 7 8 9 9 3 1 2 3 5 4 5 7 7 4 2 3 3 1 5 12 9 11 6 6 12 12 15 18 20 22 21 20 19 19 20 22 22 22 20 20 20 18 19 19 21 23 21 19 16 16 15 15 14 14 14 13 12 11 11 11 11 10 9 8 8 7 6 6 5 4 5 7 10 9 9 10 11 10 9 8 8 7 7 8 9 9 9 10 10 10 10
12 7 2 4 6 7 8 8 10 9 5 9 6 3 2 5 3 7 8 3 1 4 3 4 10 12 8 13 9 5 11 13 18 21 21 21 20 19 19 20 20 23 23 21 19 20 20 18 18 20 22 22 19 17 16 16 15 15 14 13 13 13 12 11 11 11 11 10 9 8 7 7 6 6 5 4 4 6 10 9 8 9 10 11 9 8 7 6 7 9 10 9 9 9 9 9 8
6 5 3 5 7 8 9 9 9 8 8 10 8 8 6 3 6 8 10 6 3 3 4 9 12 15 11 13 9 6 12 15 18 20 20 19 18 18 18 19 20 22 21 20 19 19 20 19 19 21 22 20 18 17 16 16 15 15 14 13 13 13 13 11 11 10 10 9 8 7 6 6 6 6 5 5 5 6 9 10 8 8 9 10 10 9 8 6 7 8 8 8 9 9 8 7 7
4 3 4 6 9 9 8 11 10 8 11 8 9 14 13 9 10 9 9 5 2 5 1 6 9 15 12 11 6 7 15 17 19 19 19 18 17 18 18 19 19 19 20 21 19 18 20 21 21 22 21 18 17 17 16 15 15 15 14 14 13 13 12 11 9 8 8 7 7 6 6 6 6 6 6 6 7 7 9 10 9 8 8 8 9 9 8 6 7 7 6 6 7 7 7 6 6
4 4 5 7 9 9 10 12 10 10 13 11 12 14 11 8 9 8 11 7 5 6 2 5 7 11 10 9 5 8 16 17 18 19 19 18 18 18 17 19 18 18 21 21 19 18 20 22 21 20 19 18 17 17 16 16 15 15 14 14 13 12 10 9 8 7 7 6 6 6 6 7 7 8 7 7 8 8 8 9 9 8 8 7 8 8 7 7 7 6 5 5 5 5 5 4 4
6 6 6 8 8 9 12 11 10 13 12 13 13 12 11 10 9 10 12 12 7 3 3 6 11 12 9 7 6 8 13 16 18 18 18 18 18 18 17 18 19 19 20 20 20 19 20 20 18 17 18 18 17 17 16 16 15 15 14 13 12 11 9 8 7 6 6 6 6 6 6 7 7 8 8 8 9 9 8 8 8 8 8 7 7 8 8 7 7 5 5 4 3 3 2 2 2
7 6 7 8 9 10 11 10 11 14 11 12 12 11 13 11 11 13 11 14 10 4 4 4 9 10 9 6 7 7 11 17 18 17 18 18 18 18 18 17 19 21 20 20 21 20 19 18 16 17 18 17 17 17 16 15 15 15 14 13 11 10 9 7 6 5 5 5 5 5 5 5 6 7 9 9 10 9 8 7 8 8 8 7 8 9 8 7 6 5 4 3 3 2 1 1 0
7 6 7 7 9 10 10 11 13 14 12 15 13 12 14 12 14 14 11 16 9 7 3 1 5 4 6 5 6 9 14 20 18 18 18 18 18 18 17 17 20 21 21 21 20 20 19 17 16 16 18 17 17 17 15 15 14 14 13 12 11 9 8 6 5 5 5 5 5 5 6 5 5 6 8 9 11 10 9 8 7 8 8 8 9 9 8 7 6 5 4 4 3 3 3 2 2
8 6 6 7 10 12 11 12 14 13 13 15 14 16 17 13 14 13 11 12 7 5 2 2 8 6 6 6 10 17 20 21 19 20 19 18 18 18 16 16 21 21 20 21 20 20 18 18 17 16 17 16 17 18 16 16 15 14 13 11 10 9 6 6 6 6 7 8 8 9 9 9 7 5 6 7 11 11 10 9 8 8 9 9 9 8 7 6 5 4 4 4 4 4 4 3 2
7 7 8 9 12 13 13 13 13 11 13 16 15 17 17 15 12 10 10 9 6 4 2 6 11 9 11 12 19 25 23 22 21 21 20 18 17 17 16 16 20 19 18 19 19 19 18 18 18 17 18 17 17 18 17 17 16 15 13 12 10 8 6 7 7 9 10 10 11 11 9 8 6 5 6 6 8 11 11 10 9 8 8 8 7 7 6 5 4 3 4 4 4 5 4 4 3
7 8 11 11 12 14 14 16 13 12 14 15 16 17 18 19 14 9 11 11 10 12 9 7 14 12 17 19 23 25 23 22 22 20 19 17 15 14 15 16 18 16 16 17 17 18 18 17 18 18 19 19 18 17 17 17 17 16 14 12 10 8 8 8 9 11 12 11 10 10 9 6 1 2 5 5 7 10 10 10 9 8 7 7 6 6 5 4 3 3 3 3 3 4 5 6 5
9 10 13 12 13 15 16 19 15 13 13 14 15 16 18 22 18 10 11 15 13 12 12 6 16 15 17 19 21 23 22 21 20 19 19 16 15 14 14 15 16 15 15 16 16 17 18 18 19 19 20 20 19 17 16 17 18 16 14 12 10 10 10 10 10 12 11 8 7 7 7 7 5 1 3 5 6 7 9 8 9 8 7 7 6 6 5 4 3 3 4 3 4 5 7 8 6
11 12 12 13 16 17 19 21 20 19 15 15 16 14 18 22 16 12 13 15 13 11 12 6 13 16 17 18 19 21 21 20 18 18 19 18 16 15 15 16 17 16 16 17 17 16 18 19 19 19 20 20 19 18 16 17 18 15 14 12 10 11 12 11 10 10 10 7 6 4 4 7 8 5 5 6 5 6 8 8 8 8 7 7 7 6 6 6 5 6 6 6 7 8 9 10 8
11 13 13 15 17 18 20 22 22 23 18 16 16 13 18 19 12 14 16 12 11 12 13 13 13 19 19 19 18 19 19 18 17 17 17 18 18 16 16 17 18 17 18 18 17 17 18 20 19 19 21 20 20 21 17 18 19 16 15 12 10 11 12 11 10 11 9 7 8 7 6 8 8 7 8 9 5 4 5 6 7 7 7 7 7 7 6 6 6 6 6 8 8 8 9 11 9
12 16 20 19 19 19 19 20 21 20 17 17 16 14 15 15 13 16 18 13 11 11 11 12 9 18 18 18 16 16 17 15 15 16 16 19 20 18 17 18 20 20 19 18 17 18 18 20 19 20 22 21 21 21 18 18 18 17 16 14 11 10 13 13 10 11 10 9 8 8 8 8 7 8 9 9 5 5 5 5 6 6 7 7 7 8 7 8 8 7 8 10 9 9 8 6 4
14 17 21 22 22 20 18 19 20 18 17 18 16 15 15 15 15 16 17 16 13 11 9 2 15 20 16 17 15 15 16 14 15 16 15 21 21 19 20 19 21 21 20 18 18 18 18 20 19 19 22 21 20 20 19 19 18 17 16 14 13 11 13 13 10 10 10 10 9 7 7 7 8 8 8 7 6 8 8 7 8 8 9 9 8 8 8 9 8 7 9 10 7 5 4 3 2
18 18 21 22 22 23 22 20 19 18 18 20 17 16 19 18 14 15 17 16 14 13 14 6 22 21 18 18 14 15 17 15 17 18 17 22 21 21 23 21 21 21 21 20 19 20 18 20 20 19 20 19 20 19 18 18 17 16 15 14 14 13 12 11 10 10 9 10 9 8 7 8 8 8 7 5 5 7 7 7 8 9 10 9 8 8 8 8 6 4 5 5 3 2 3 3 2
21 21 21 20 21 22 24 21 22 23 18 19 21 21 22 19 15 17 19 18 16 15 18 13 16 19 20 20 17 15 15 15 17 17 17 20 20 21 23 20 19 19 22 21 20 22 20 20 20 19 20 19 18 18 17 17 15 14 15 14 13 12 12 11 10 10 9 8 8 8 7 7 6 6 5 4 4 5 5 7 6 7 7 6 6 6 7 7 5 3 3 3 4 3 4 2 2
20 24 22 21 21 21 22 21 24 25 17 16 23 24 23 20 17 18 20 18 17 16 17 15 13 15 17 17 17 15 15 14 15 16 16 18 21 21 20 19 18 16 22 22 19 23 21 20 21 20 20 19 18 17 16 16 15 15 14 13 12 11 11 10 10 9 9 8 7 7 7 6 5 4 3 3 4 3 3 6 5 5 3 3 5 5 5 4 3 3 3 3 3 3 2 1 1
20 25 23 24 25 21 20 22 24 23 19 20 23 23 23 21 18 15 15 15 16 14 12 14 16 12 13 15 15 14 14 14 16 17 14 15 20 19 18 19 19 17 22 23 20 22 22 20 21 22 20 19 19 17 16 16 15 15 14 13 11 12 10 9 10 9 8 7 7 6 5 5 4 6 5 4 4 3 4 6 6 6 6 5 6 5 3 2 3 3 4 3 2 3 2 1 1
23 26 23 26 27 22 22 23 23 19 18 24 25 23 23 21 19 17 15 16 16 13 10 12 11 8 12 17 15 12 12 15 19 18 13 15 17 18 18 19 20 18 21 24 21 22 23 22 21 22 22 19 18 17 15 16 16 14 13 12 11 12 12 10 9 8 7 7 6 5 5 5 4 6 7 6 7 7 7 8 9 9 9 8 6 3 3 3 5 3 4 4 3 3 3 2 3
22 25 22 25 27 24 25 24 24 20 17 25 25 21 21 21 22 22 19 17 15 13 11 11 3 6 9 13 13 10 12 15 17 16 16 17 17 19 21 20 20 18 20 22 22 24 23 22 20 21 22 20 17 16 16 16 16 14 12 11 10 12 12 10 9 8 7 6 6 5 5 5 4 4 5 6 7 8 7 7 7 7 7 5 4 3 2 6 8 4 5 4 4 4 4 4 5
20 23 19 19 20 20 25 25 26 24 19 25 22 15 17 20 25 23 17 16 14 13 13 11 4 7 7 9 11 10 11 14 14 16 18 18 18 21 22 21 21 19 20 20 23 27 23 21 21 20 21 20 17 15 16 16 15 14 12 11 11 12 11 9 9 8 7 6 5 5 5 4 3 3 5 6 5 6 7 7 6 6 5 4 4 3 2 6 5 2 4 4 4 5 5 5 5
17 20 15 14 14 16 24 24 27 27 20 26 22 14 16 20 26 21 15 15 14 12 14 13 8 8 8 8 12 11 11 13 16 18 19 18 19 22 22 23 22 21 21 20 23 27 24 20 21 20 19 19 17 16 16 16 15 14 12 11 12 12 10 9 8 8 7 7 6 5 4 3 3 3 5 5 4 6 7 7 7 6 4 3 5 4 2 4 0 2 3 3 3 4 5 6 8
12 14 12 13 13 16 23 23 27 29 21 26 25 16 15 20 25 17 14 14 14 12 13 14 11 8 7 7 10 12 11 13 17 20 20 19 20 22 22 23 24 22 22 21 23 27 24 20 20 21 19 18 18 17 16 16 15 14 12 11 12 11 10 8 8 7 7 6 6 6 4 3 3 3 5 5 5 7 6 6 7 6 3 2 3 2 3 3 1 2 3 3 2 3 4 6 11
11 12 12 17 18 16 18 20 29 33 22 22 26 18 12 16 21 12 10 14 15 14 12 13 12 9 8 8 9 10 11 12 15 17 21 21 20 22 23 23 24 22 21 20 22 27 24 20 21 22 20 19 19 18 16 16 15 14 12 11 11 11 10 8 8 7 6 7 7 7 6 5 5 4 5 6 7 6 6 7 7 6 4 2 1 0 2 3 1 3 4 1 3 2 2 6 12
11 12 14 19 23 19 16 19 28 31 24 22 27 23 17 16 19 15 11 12 13 15 15 14 12 11 11 10 8 9 12 12 11 14 21 22 20 22 23 23 23 21 21 21 22 25 24 22 22 21 21 20 20 19 17 16 15 14 12 11 12 11 9 8 8 7 6 7 7 7 6 6 6 6 6 8 9 8 7 7 6 6 4 2 2 3 3 3 3 1 2 0 2 1 5 9 15
15 15 14 15 22 24 20 19 20 21 22 25 29 27 22 20 21 19 17 15 16 17 16 15 14 14 12 10 9 10 12 12 11 15 22 23 20 22 22 22 24 23 21 22 24 24 23 23 23 22 22 22 21 20 18 16 15 14 12 12 12 11 9 8 8 8 7 7 7 7 7 7 7 7 8 9 9 9 8 6 6 5 3 2 3 4 3 2 2 1 1 1 1 1 5 10 14
22 20 18 17 20 21 19 19 17 17 19 24 29 26 21 21 24 22 17 16 19 20 16 14 13 13 12 11 9 11 12 10 11 17 23 24 21 22 22 21 24 25 22 23 26 25 24 24 24 23 24 24 22 21 19 17 15 14 13 12 12 11 10 8 8 8 8 8 6 6 7 10 10 9 9 8 8 7 5 4 4 2 1 3 4 5 2 1 3 2 1 2 2 2 5 9 13
24 21 20 21 19 15 18 24 21 19 20 18 22 24 22 24 25 24 19 15 17 19 15 15 12 11 11 11 10 12 12 10 12 18 23 23 23 24 24 22 24 25 23 24 27 26 25 26 25 24 25 25 24 22 20 19 17 16 15 14 13 12 10 10 9 8 9 9 7 6 8 12 12 10 10 9 9 9 6 4 2 1 2 4 4 5 4 2 3 2 1 1 3 4 6 8 11
24 19 17 18 18 16 20 25 22 22 20 16 21 24 26 27 26 24 21 19 19 18 13 14 14 12 9 10 12 13 11 11 12 15 19 22 22 24 25 23 24 26 23 25 28 27 25 26 25 25 26 25 24 24 24 21 19 18 17 15 13 12 11 10 10 9 10 10 8 6 9 12 12 10 10 10 9 9 8 7 4 4 4 4 4 4 3 2 3 3 3 2 3 5 5 9 11
21 17 15 15 16 16 18 22 24 23 17 16 25 25 23 27 26 23 21 20 19 16 12 13 14 13 10 10 12 14 12 14 15 15 17 20 22 24 24 23 25 26 25 26 29 27 25 26 26 25 26 25 24 24 24 22 20 18 17 15 13 13 12 10 11 12 11 11 11 9 9 10 10 9 8 9 8 6 6 5 4 5 5 4 5 5 4 4 4 3 5 4 5 5 5 8 9
18 15 14 14 16 16 14 18 25 24 18 19 25 23 19 19 21 22 22 22 19 19 19 16 14 14 14 13 12 15 16 16 17 16 16 18 22 24 24 24 25 26 26 28 28 28 27 27 26 26 27 26 23 23 22 21 20 18 16 15 13 13 13 12 12 12 11 11 11 11 11 11 9 8 7 6 5 4 3 3 3 4 4 4 4 3 4 3 2 3 4 4 4 5 5 5 4
18 20 18 15 18 21 16 15 20 21 22 24 24 20 16 16 19 21 20 21 21 20 24 20 17 17 17 16 15 16 19 18 18 18 17 17 20 22 23 25 26 25 26 29 29 28 27 27 26 26 28 26 24 24 22 20 20 18 16 15 14 14 14 13 12 11 11 10 9 10 11 11 8 7 6 4 3 2 1 2 3 3 3 4 2 2 4 4 3 3 3 3 2 3 7 4 2
16 21 22 20 22 24 21 20 19 15 17 22 22 17 14 18 23 20 16 17 19 18 24 24 21 20 19 17 16 16 19 19 20 20 19 18 21 24 24 25 27 26 26 30 30 27 25 26 27 27 27 25 25 25 23 21 21 19 18 18 17 18 16 14 14 13 12 12 11 10 9 9 8 7 6 3 2 2 1 2 4 3 3 5 4 4 5 5 5 4 4 3 3 6 7 5 4
13 17 22 25 26 24 23 25 20 13 12 19 23 17 11 14 18 18 17 17 18 17 20 24 22 20 19 17 16 14 18 19 18 19 20 19 21 24 23 26 29 27 28 31 29 27 26 27 28 26 26 26 25 26 24 23 23 21 20 19 18 18 16 15 15 14 14 13 13 12 11 10 8 7 5 3 2 2 1 3 5 4 4 5 5 6 6 5 5 5 6 6 6 7 6 6 7
12 16 22 26 28 27 25 22 17 13 13 17 22 20 13 11 13 17 20 18 19 20 19 20 21 22 21 18 16 14 18 19 17 18 20 20 21 24 26 27 28 28 32 33 29 29 28 27 28 27 26 26 26 27 26 24 24 23 22 20 18 17 16 15 15 16 16 16 15 13 12 10 8 5 4 3 3 4 3 3 5 5 5 5 6 7 6 6 6 6 7 8 8 7 7 8 8
14 19 22 23 25 27 24 20 16 14 14 15 18 20 16 11 11 15 18 20 22 23 22 22 22 23 22 19 18 16 17 21 20 19 20 21 23 28 30 29 28 29 34 36 32 32 29 24 26 27 25 25 26 27 27 25 25 24 23 22 19 18 17 17 17 18 17 17 15 13 11 10 8 6 5 5 4 5 5 4 5 6 5 5 7 7 7 8 7 7 8 8 8 9 10 11 10
16 21 22 20 20 24 23 18 15 14 13 13 18 21 15 11 12 13 14 18 20 20 21 22 20 20 19 19 18 17 15 18 20 20 20 20 25 30 31 30 30 30 34 36 32 33 33 25 25 27 25 25 26 27 28 26 25 24 23 22 20 19 19 19 19 18 17 17 16 13 12 10 8 6 6 6 5 6 7 5 5 6 6 7 7 7 7 8 9 9 10 9 9 10 10 11 11
18 19 19 17 17 19 16 12 12 12 11 15 23 26 19 11 10 11 11 14 16 16 17 16 18 20 18 16 16 17 14 15 18 19 19 20 25 30 30 29 31 30 31 33 30 32 33 27 25 28 26 25 27 28 29 27 25 25 24 22 21 21 22 21 20 19 18 18 16 14 13 11 9 8 7 6 4 6 8 6 6 6 7 7 8 8 8 9 10 11 11 11 11 10 11 11 11
19 15 14 13 12 13 12 10 12 11 10 15 23 26 20 12 8 10 14 20 22 17 15 16 18 20 17 13 15 16 14 15 17 16 16 19 21 25 27 27 30 30 29 32 29 28 31 28 27 29 27 26 27 28 29 27 26 25 23 22 23 24 24 22 21 20 19 19 17 16 14 12 10 9 8 6 4 5 6 6 6 7 8 8 9 9 10 10 11 11 12 13 13 12 12 12 13
18 15 13 10 8 9 10 12 12 10 10 16 22 23 19 12 10 14 18 23 25 21 16 17 18 18 16 15 15 14 14 15 16 14 15 17 16 18 23 26 28 29 29 31 28 27 30 29 28 29 28 27 27 28 29 28 27 25 24 24 25 25 24 22 22 21 20 19 17 17 15 13 12 10 9 8 7 6 6 6 6 7 9 9 10 10 10 11 11 12 12 12 13 13 12 13 14
16 15 12 10 9 8 9 12 11 10 11 17 24 21 15 12 12 18 21 20 22 23 20 17 18 18 16 17 18 16 17 17 16 14 14 16 15 16 22 26 28 28 29 29 28 29 30 29 29 30 28 27 27 28 29 29 27 25 26 26 26 26 23 22 22 21 21 19 18 17 15 13 13 12 10 9 8 8 7 7 7 7 9 10 11 11 11 11 12 12 13 13 13 13 12 13 14
15 15 13 11 10 7 8 11 11 10 12 18 21 15 12 12 11 14 21 20 18 19 20 16 16 17 15 16 19 19 19 17 16 14 15 16 17 18 22 25 26 27 29 29 28 30 30 29 30 30 29 29 29 28 29 29 27 26 26 27 26 25 23 23 22 21 21 20 18 18 15 13 14 13 11 10 9 9 8 8 8 9 10 11 12 12 12 12 12 13 13 13 14 12 13 14 13
13 14 12 11 10 8 6 9 10 11 11 13 12 7 7 10 11 16 18 19 18 17 18 18 17 16 16 16 17 18 16 14 16 16 17 18 18 20 22 24 25 27 29 29 28 30 31 30 30 30 30 31 29 29 29 28 27 27 27 28 27 25 24 24 23 22 22 20 19 18 16 15 15 13 11 12 11 10 10 9 9 10 11 11 12 12 12 12 12 13 14 14 14 13 13 13 12
9 12 13 13 14 11 6 7 10 10 9 8 7 7 9 9 12 18 18 18 21 21 19 18 19 16 17 16 15 17 15 15 17 17 18 19 18 20 23 24 26 28 29 30 30 31 32 31 30 31 31 31 30 30 29 28 28 28 27 28 27 25 24 24 24 24 23 20 19 19 16 16 16 13 12 14 12 11 11 10 10 11 11 11 11 11 12 12 13 14 14 14 14 13 13 13 12
8 10 14 15 16 13 7 6 8 9 9 8 10 14 14 11 9 12 16 17 18 20 19 14 16 14 15 15 14 16 16 17 18 19 20 19 18 21 25 25 27 29 30 30 30 31 31 30 31 32 32 32 32 31 29 28 29 28 27 27 27 27 25 24 25 25 24 22 20 19 18 17 17 13 12 13 13 12 12 11 12 12 12 12 12 12 13 13 14 14 14 14 13 13 13 12 11
14 11 14 14 12 12 9 5 5 10 9 7 13 18 16 13 10 10 16 17 14 17 17 13 14 13 12 14 14 15 16 17 19 19 19 19 18 21 26 27 28 30 29 29 30 30 30 30 31 32 32 32 32 31 29 29 29 28 27 26 27 28 26 24 25 26 25 23 21 20 19 18 15 13 13 13 14 14 13 13 13 12 12 12 12 13 13 13 14 14 14 14 12 12 12 11 10
16 14 14 12 9 10 9 5 4 7 8 6 11 15 12 12 12 10 16 19 16 15 13 13 15 13 11 14 14 13 14 16 18 18 19 20 20 23 28 30 30 30 30 29 29 29 29 30 31 31 31 31 32 31 29 30 29 27 26 26 27 28 27 25 26 26 26 24 21 20 20 19 16 14 15 14 14 15 14 14 13 13 13 13 13 13 13 13 13 13 13 13 12 11 11 11 10
12 12 12 11 9 8 8 7 7 7 6 6 8 10 10 10 10 12 17 18 16 15 12 11 14 13 13 14 14 13 13 15 18 18 19 19 19 22 27 29 30 30 29 29 29 28 29 29 30 32 32 31 33 31 29 31 29 27 28 27 27 29 28 27 27 27 26 23 21 20 20 20 17 15 15 16 16 16 15 14 14 14 13 13 13 13 12 13 13 12 12 12 12 11 11 11 10
12 10 10 12 10 9 8 8 8 7 5 6 7 8 8 9 10 13 14 11 12 14 13 11 14 14 14 15 16 15 12 14 19 18 17 17 17 19 24 27 27 27 27 29 29 29 30 30 31 32 31 31 33 31 29 31 29 27 28 28 29 30 29 28 27 26 26 24 22 21 20 19 17 15 16 17 17 17 16 15 15 14 14 13 13 13 13 12 12 12 12 12 11 11 11 11 10
Wind_Direction
330 333 336 320 252 228 224 215 246 221 217 258 234 191 194 188 166 153 167 122 52 304 14 24 43 33 31 75 90 75 55 50 39 55 102 132 143 134 114 113 121 122 125 131 135 140 141 143 140 135 133 133 134 131 130 129 127 126 127 127 128 131 131 128 123 120 118 114 110 104 94 90 90 87 84 79 83 87 89 94 98 102 107 112 114 116 115 116 114 110 108 105 105 105 103 101 100
329 327 332 324 249 230 247 214 245 248 223 243 245 242 198 204 195 140 136 133 122 110 96 291 99 83 87 97 84 74 63 57 67 73 97 128 135 127 119 119 123 123 127 132 135 137 141 145 142 137 135 135 136 134 133 130 128 129 129 129 130 134 135 131 127 126 124 120 115 108 100 96 95 92 92 86 84 89 94 100 101 105 111 113 115 118 118 119 117 115 113 110 108 107 104 103 103
324 322 326 329 275 227 261 236 244 254 252 253 225 240 196 224 239 142 108 98 106 132 169 169 113 124 165 104 70 67 79 69 86 93 109 136 137 132 128 124 124 125 129 133 137 137 141 146 145 140 138 139 138 137 136 131 130 131 131 131 132 134 136 134 131 131 129 126 121 114 105 100 103 101 100 95 93 94 96 100 102 109 113 115 117 119 120 120 119 119 116 114 113 108 104 104 105
318 319 314 319 315 264 280 256 253 252 257 266 215 203 210 210 331 81 93 57 126 202 202 116 116 14 27 78 90 84 84 74 86 103 135 147 138 136 134 129 127 127 131 134 137 138 143 148 147 143 140 142 141 139 137 134 133 132 134 134 135 135 137 136 135 134 130 130 126 118 107 103 108 107 105 99 99 103 105 104 106 115 116 118 121 120 121 121 119 119 120 120 116 109 106 106 106
316 315 293 282 321 311 311 276 270 256 255 268 215 211 244 229 354 347 73 47 243 264 289 139 143 87 53 55 80 81 77 82 73 90 130 137 137 136 132 131 131 132 134 134 135 138 146 149 147 143 141 142 142 140 138 136 134 134 137 137 138 137 138 139 136 135 131 131 126 120 113 109 109 106 104 99 99 106 117 120 116 122 123 124 124 125 124 122 121 120 124 122 117 111 110 109 107
313 309 280 252 284 300 298 274 275 264 269 286 210 221 259 271 282 230 133 168 232 283 256 224 114 101 82 60 65 55 47 95 92 90 120 132 137 135 132 133 134 134 131 130 132 139 147 149 147 143 141 143 143 141 139 137 136 137 140 140 140 138 140 140 139 136 132 131 128 126 119 113 108 105 101 98 97 104 127 132 128 130 128 129 128 130 129 128 129 125 125 122 116 114 113 112 110
289 304 288 249 260 258 256 263 268 269 284 125 241 250 236 234 62 254 212 185 204 189 184 323 109 105 90 86 75 50 40 77 122 125 128 133 135 134 136 135 134 129 123 123 127 139 149 150 147 142 141 143 144 143 139 138 138 140 141 141 139 139 141 140 140 136 133 133 133 129 120 115 111 106 99 96 96 106 129 132 132 137 135 139 138 137 136 132 133 132 127 119 115 114 115 113 110
255 256 312 283 284 263 255 260 260 265 310 218 236 351 293 50 67 264 245 187 219 221 169 237 118 96 77 89 87 55 57 70 107 124 129 132 135 137 136 131 132 125 118 122 130 142 148 150 146 141 141 143 145 143 139 138 139 140 141 141 139 140 140 140 141 139 136 136 134 133 126 124 122 116 109 102 98 112 128 129 131 139 142 145 144 143 140 138 140 137 128 118 117 114 113 111 107
247 226 219 264 273 275 268 261 258 257 282 274 233 133 346 25 359 283 274 257 212 249 156 85 69 94 102 88 95 98 86 93 111 124 130 134 136 133 131 129 129 120 115 124 133 142 146 148 145 141 142 144 143 141 139 139 139 141 142 140 140 141 140 140 142 142 141 139 142 145 140 139 138 132 133 128 111 124 135 134 134 140 148 147 145 147 148 153 149 140 128 123 122 117 113 108 104
264 236 253 251 247 256 263 260 263 258 251 256 247 255 266 208 237 251 264 310 65 222 105 84 85 113 124 93 99 110 113 125 125 129 133 133 131 129 131 130 127 118 115 125 131 140 144 145 144 143 145 144 141 141 141 141 140 141 143 142 143 144 143 146 148 148 149 152 162 166 164 159 156 151 151 151 131 134 141 141 142 144 149 149 152 156 158 163 154 142 129 127 126 123 119 110 106
285 248 247 248 242 241 252 256 260 263 257 237 210 248 263 218 225 246 260 325 37 248 66 101 118 112 107 96 100 115 124 134 131 133 133 130 130 131 131 129 129 124 122 126 129 137 143 145 146 146 145 142 142 143 142 142 144 143 144 146 148 149 150 155 158 159 162 173 186 192 196 184 185 178 165 160 146 141 144 145 150 157 160 157 161 162 162 162 157 148 130 126 125 123 122 117 110
258 252 229 236 241 240 246 252 260 265 265 253 212 219 252 234 217 253 265 266 245 254 27 74 99 99 96 96 100 127 129 130 131 131 132 131 128 128 127 127 129 128 126 126 130 136 142 146 146 146 144 144 145 143 143 145 147 147 149 151 152 155 157 159 164 172 177 187 196 200 202 197 198 187 175 166 153 150 150 151 156 163 169 167 169 165 160 162 160 155 142 134 127 125 123 119 111
234 242 237 240 237 240 247 249 261 264 262 258 241 226 247 254 230 233 250 254 242 261 359 65 79 84 91 102 118 136 130 126 131 132 132 128 124 126 125 125 129 130 127 126 130 134 141 144 143 146 146 146 147 145 147 148 149 152 155 156 157 158 158 162 170 180 185 188 192 195 198 195 193 187 182 169 157 159 158 159 160 162 173 176 172 166 162 165 167 164 159 154 144 140 133 122 110
233 238 242 244 235 235 244 245 248 254 261 258 255 246 237 235 241 239 243 256 231 131 24 69 85 93 110 125 138 139 132 131 136 136 131 125 124 125 123 128 133 130 127 127 130 136 141 142 144 150 150 148 149 149 149 151 153 158 159 160 161 162 163 168 176 178 175 171 171 180 183 182 184 182 183 174 162 163 167 169 165 164 172 176 172 170 169 170 174 182 184 184 185 189 192 212 327
236 241 245 248 242 236 230 234 241 247 256 249 250 270 263 233 235 239 230 254 243 114 70 34 53 80 123 116 148 146 140 141 142 136 131 130 128 124 129 135 128 124 127 128 132 140 144 145 151 153 151 153 152 152 153 155 159 162 164 164 166 167 168 168 170 165 148 139 135 135 132 135 152 167 176 175 167 166 176 175 164 161 161 164 170 173 176 178 185 195 205 217 226 238 246 266 303
236 241 248 248 243 240 231 227 232 240 251 250 254 275 279 258 245 247 232 249 245 133 146 101 67 75 103 92 135 140 142 146 143 140 135 131 127 126 140 135 118 119 126 130 136 144 148 150 155 156 155 157 155 155 156 160 164 167 169 169 172 170 168 166 160 147 130 121 118 117 111 103 102 136 160 166 168 170 176 172 160 158 155 159 167 174 181 185 194 205 223 237 246 254 261 270 292
235 233 240 241 236 236 236 233 228 234 242 238 243 261 274 273 258 247 252 260 245 253 323 101 101 100 101 110 133 136 144 148 147 147 134 127 131 136 147 131 115 122 128 132 141 147 153 156 157 160 161 161 158 158 158 163 167 170 172 173 176 169 163 160 150 134 122 114 113 113 108 93 74 103 133 142 164 167 170 167 165 165 160 162 166 175 182 184 199 216 232 241 251 255 260 260 258
235 227 230 234 235 231 234 237 230 233 243 236 226 235 254 269 262 232 238 245 238 261 276 120 112 104 106 122 134 137 147 147 150 150 131 130 143 151 153 133 121 133 137 137 146 153 156 160 162 163 165 164 161 158 160 168 169 171 175 176 175 167 161 155 146 135 123 114 114 116 117 128 83 74 122 143 161 164 170 167 167 175 169 168 170 175 184 192 203 216 235 243 251 255 261 259 256
234 235 229 229 233 230 236 244 245 242 248 254 239 232 246 258 259 237 226 232 227 244 260 157 121 117 119 128 134 139 147 147 152 149 139 145 155 161 159 141 135 143 146 145 152 160 161 164 167 165 167 168 163 157 164 171 168 173 176 174 173 164 158 152 147 139 135 132 125 119 122 156 194 173 140 164 168 169 176 173 170 179 177 177 180 182 192 200 216 230 239 249 254 258 255 255 255
229 237 232 230 232 230 233 240 251 255 254 256 247 238 244 247 247 239 228 236 236 239 261 226 141 136 135 136 141 144 147 150 157 155 152 154 159 167 162 151 149 149 153 152 155 169 169 168 167 166 170 170 162 159 168 169 165 170 170 172 174 162 157 153 153 153 159 174 168 153 140 167 187 186 168 173 188 179 175 180 178 183 186 189 191 196 204 210 226 235 248 257 252 259 263 268 264
222 228 232 234 236 237 235 236 242 246 250 256 251 237 239 242 240 239 233 231 236 230 247 243 177 151 146 143 148 149 148 154 162 170 167 156 159 171 166 156 154 154 157 155 161 178 175 167 166 169 172 169 165 165 166 167 169 170 168 173 173 159 158 162 175 180 180 190 183 180 177 179 189 185 171 174 192 177 171 187 187 190 194 198 205 207 213 227 244 246 258 268 260 266 272 273 264
223 226 231 235 239 242 236 238 244 242 244 252 250 234 235 243 241 241 237 230 227 212 237 258 173 141 140 144 151 148 151 159 165 183 178 155 159 169 167 158 152 156 161 161 170 180 174 165 166 172 174 169 168 168 165 169 174 173 169 171 176 173 169 172 189 191 189 192 183 186 187 180 180 176 171 174 187 183 176 191 201 211 213 218 225 222 226 235 248 250 250 261 264 264 265 263 249
227 230 229 230 235 242 239 238 242 242 243 247 242 232 236 235 236 244 236 238 242 232 256 302 110 125 140 147 153 148 157 167 167 189 182 156 163 168 164 161 154 160 167 166 170 175 171 165 166 173 176 171 169 169 168 172 175 174 172 170 179 187 179 176 187 190 193 196 188 189 190 182 180 184 186 185 192 192 189 201 217 228 228 227 228 231 238 234 237 242 239 241 240 244 246 250 279
229 235 231 229 230 235 240 240 243 248 249 250 240 233 242 235 238 248 235 241 248 248 257 170 122 137 156 153 156 155 163 172 172 191 182 160 169 169 162 161 161 167 168 164 167 169 170 169 167 172 175 173 172 171 169 172 175 174 173 176 183 183 178 180 187 189 195 200 195 192 193 192 191 197 205 204 210 208 198 204 224 237 235 229 226 231 241 238 229 218 223 210 173 222 242 222 265
229 234 233 231 230 230 234 233 239 251 253 251 240 229 237 234 239 251 239 238 232 231 242 213 155 155 157 152 158 160 165 172 172 188 187 165 161 161 157 158 167 171 160 160 165 164 171 174 169 172 174 173 174 172 170 171 174 173 173 184 191 181 179 186 188 190 192 197 197 193 197 199 199 208 206 186 198 203 176 172 201 231 235 238 238 227 231 240 232 207 225 212 178 228 249 192 241
229 232 233 233 234 230 232 227 227 240 246 248 243 233 233 227 228 245 243 241 232 223 228 229 214 182 154 144 156 162 166 172 169 182 192 163 145 151 156 157 172 175 153 157 165 158 170 178 171 173 174 174 174 172 173 172 171 173 176 186 191 182 180 185 186 191 194 193 198 197 199 202 190 181 192 179 179 196 173 164 184 211 214 258 259 223 211 228 227 203 200 203 174 182 214 179 257
233 235 232 232 237 232 231 231 223 226 232 241 245 237 235 229 223 232 240 245 239 228 218 227 239 210 149 141 161 162 163 171 166 178 186 155 144 156 161 158 174 181 156 160 167 158 169 180 174 173 172 174 175 174 175 173 172 175 179 186 189 184 182 184 185 192 195 191 199 197 187 198 182 157 175 200 188 205 204 177 183 192 180 198 233 235 234 200 194 184 159 170 154 131 147 132 56
236 239 236 231 235 233 233 236 229 225 224 231 242 244 237 230 228 226 230 244 234 223 234 235 232 206 156 149 159 156 160 169 166 178 180 152 154 162 160 164 180 182 160 162 167 160 170 182 178 170 168 173 175 175 175 173 174 175 182 186 183 184 186 185 186 192 192 192 194 182 172 186 190 174 179 184 179 188 192 180 182 187 184 182 188 222 294 267 213 171 139 160 151 132 134 100 81
240 238 241 236 232 229 231 236 233 231 229 223 232 249 240 228 230 222 222 246 234 208 237 258 205 158 168 147 147 155 160 168 166 179 184 165 164 162 161 174 184 177 165 166 164 163 174 182 179 168 167 174 175 175 174 172 173 174 182 185 180 185 186 182 189 194 187 192 185 166 185 191 180 182 180 178 178 176 176 175 175 176 179 174 150 143 273 250 228 184 145 155 144 136 129 105 93
240 236 237 240 237 227 223 231 231 229 241 231 224 243 241 234 238 222 212 244 238 201 210 237 212 151 175 145 142 163 161 169 171 174 184 176 165 163 167 177 181 171 170 174 164 165 175 179 178 169 166 174 176 175 172 170 172 174 178 181 182 183 181 183 190 192 185 189 176 160 201 198 150 170 174 177 173 159 166 160 149 155 158 156 136 128 220 241 231 158 124 134 138 135 127 118 115
233 234 233 232 240 232 220 225 227 223 238 237 222 229 234 234 240 221 201 236 241 209 192 207 214 165 175 165 152 166 167 171 171 169 178 174 164 168 173 177 178 171 173 179 165 164 172 174 175 169 166 173 176 176 173 171 171 173 178 179 182 178 178 188 187 187 186 182 170 162 192 173 125 165 172 174 158 141 154 148 136 144 156 167 137 125 249 263 206 70 96 113 109 127 135 124 119
224 226 229 225 232 237 227 226 226 219 225 235 225 227 234 234 239 214 182 220 239 228 193 186 204 179 173 185 167 166 166 167 166 165 171 169 164 169 177 180 178 173 174 178 164 161 171 173 170 169 171 176 176 177 174 173 172 174 180 181 180 177 178 189 186 187 186 170 160 159 173 155 133 170 171 168 154 139 147 145 135 131 142 165 124 116 261 262 91 87 98 111 118 131 145 120 107
220 217 220 224 225 230 230 230 231 222 217 234 234 230 234 238 240 217 178 206 224 233 209 180 190 192 190 202 194 171 161 164 163 163 166 166 165 171 182 183 176 172 171 174 162 160 172 174 169 172 175 176 177 178 174 173 174 174 181 180 178 179 180 188 187 184 174 154 156 165 169 152 139 159 167 160 155 145 145 147 135 123 116 100 105 284 271 257 257 110 103 120 172 143 40 119 120
213 216 219 223 224 224 222 225 229 220 209 227 240 233 225 236 241 229 210 212 223 224 208 193 190 193 202 208 200 168 158 163 163 162 163 165 168 174 185 180 169 168 169 173 168 163 171 172 171 175 176 177 177 177 175 174 175 174 179 179 178 180 182 189 183 173 167 157 163 171 162 150 145 150 156 150 147 147 149 144 126 119 113 96 173 225 249 233 248 150 119 355 171 110 34 97 121
210 212 216 218 223 223 219 222 220 214 212 218 233 234 222 232 244 235 219 214 229 230 206 200 203 197 202 208 191 161 158 161 159 162 161 167 175 173 177 173 165 168 171 173 171 171 175 172 173 177 176 177 178 177 175 172 173 175 177 177 178 180 183 185 173 163 160 155 164 171 158 152 147 143 152 142 130 143 153 141 121 116 121 146 194 237 245 178 194 209 176 153 101 52 67 103 120
218 215 220 221 226 225 222 229 217 215 232 223 224 233 224 228 240 239 231 215 222 231 211 196 207 199 194 207 195 160 158 156 152 159 161 168 175 166 163 168 167 169 175 174 170 176 179 174 175 178 176 178 177 175 174 173 174 176 176 176 178 181 182 176 166 160 152 146 163 177 157 146 139 135 150 147 132 148 153 124 123 119 156 211 224 244 268 147 192 223 288 178 154 110 112 119 129
229 225 226 225 229 228 226 235 223 217 239 229 218 231 231 231 239 237 234 227 230 238 214 189 202 198 190 208 190 153 151 152 154 158 162 169 169 160 160 169 170 169 178 175 172 181 182 176 177 177 177 177 175 173 173 176 178 178 177 179 180 180 178 168 159 157 150 149 162 171 150 136 129 127 134 137 139 150 145 124 142 161 216 230 230 244 272 294 197 178 357 179 140 128 126 131 143
235 234 231 227 227 228 228 232 224 218 231 225 213 222 226 227 238 240 229 220 229 243 219 186 198 199 200 210 179 155 144 146 158 157 160 167 162 159 162 171 172 171 177 175 175 186 184 179 179 177 176 176 176 178 177 177 181 181 179 179 179 176 173 166 160 157 149 145 147 153 145 129 122 125 126 127 133 144 151 152 167 181 203 214 203 227 250 255 232 184 160 154 138 142 130 137 151
235 236 235 231 226 227 229 228 225 224 228 227 221 221 223 221 224 236 239 225 216 221 213 195 203 203 206 208 175 159 148 147 162 160 158 162 158 160 164 171 176 174 176 176 180 187 185 182 181 177 175 174 177 180 178 180 181 180 179 178 178 173 170 168 158 150 142 138 137 136 136 129 126 128 125 124 129 136 151 152 158 177 196 215 217 227 217 225 248 182 158 152 151 160 135 133 151
234 233 235 235 227 223 223 222 224 227 229 231 231 230 234 230 217 219 235 240 224 202 199 205 209 208 208 208 187 164 155 155 161 159 158 161 159 164 168 171 176 177 176 178 185 188 186 184 180 176 174 173 176 177 177 182 182 178 177 177 177 167 160 160 150 142 140 136 136 137 141 146 141 129 122 127 127 123 142 150 151 170 181 200 234 229 179 193 205 138 148 149 146 161 147 131 145
231 230 231 233 233 229 223 221 222 224 227 230 234 234 235 238 226 215 216 237 244 210 197 207 206 204 210 209 198 174 160 158 160 161 164 165 166 169 168 168 174 179 178 181 189 191 186 183 179 176 174 173 175 177 178 180 180 178 174 169 164 155 149 151 148 146 149 141 138 145 150 150 141 129 128 131 122 101 143 173 159 184 185 167 183 163 150 162 161 146 148 152 133 133 139 125 114
226 228 230 235 239 235 227 226 224 221 225 226 229 233 233 231 230 226 206 215 245 221 196 208 208 201 206 210 208 182 163 162 163 165 167 167 172 171 165 167 174 179 181 184 190 190 186 182 179 176 173 173 175 177 178 179 180 180 173 161 153 151 151 159 162 158 158 152 146 144 143 142 138 134 130 129 128 99 42 103 119 139 154 137 141 148 144 136 130 128 126 127 90 96 121 120 107
226 221 226 233 240 241 234 228 224 223 223 218 222 228 234 231 228 232 218 207 232 230 204 206 206 203 203 208 214 183 158 164 164 163 166 167 172 173 168 169 175 179 182 186 189 190 189 184 179 175 174 175 174 175 177 179 181 181 175 165 159 159 160 168 172 165 161 155 148 145 149 151 145 135 127 128 146 123 106 107 110 122 134 135 138 134 133 131 124 119 112 114 110 100 106 120 118
229 218 220 227 232 238 242 239 231 229 231 220 219 224 230 233 224 221 219 214 222 228 222 209 198 202 204 202 210 190 162 164 163 163 169 170 171 175 174 173 175 179 183 185 186 188 189 185 180 176 176 176 173 174 177 179 180 178 175 170 165 165 165 170 171 164 161 154 149 154 159 154 140 131 130 136 138 126 118 111 114 121 123 130 132 124 122 124 126 126 115 112 121 110 94 105 109
231 226 223 223 226 232 241 245 237 233 237 226 219 224 227 226 220 210 211 220 221 218 224 221 203 198 198 194 203 203 178 166 164 167 172 172 173 175 176 176 176 178 185 188 188 189 187 182 181 178 177 177 174 176 179 181 180 177 174 171 170 171 170 170 165 159 158 155 155 161 162 154 144 138 139 152 161 144 124 113 119 121 118 128 129 125 127 123 119 122 120 117 120 111 98 99 96
227 233 231 222 224 230 237 242 237 237 241 231 221 223 224 221 219 212 210 221 221 213 218 224 214 205 195 184 192 204 188 166 167 171 171 173 174 174 174 175 175 178 186 189 190 193 189 182 183 180 178 178 176 179 181 181 181 177 174 174 175 172 166 163 160 157 157 158 162 166 163 157 149 145 150 170 174 144 127 119 124 125 121 124 123 120 127 125 118 113 113 115 119 115 105 101 95
224 231 232 227 225 221 229 243 240 239 238 232 229 224 222 223 215 209 222 236 233 218 211 215 217 212 200 181 184 199 189 162 165 171 170 171 172 173 172 173 176 179 184 186 188 193 190 185 185 182 182 180 178 181 183 181 181 178 177 179 177 168 161 161 158 157 161 164 166 165 161 155 147 152 165 179 160 120 119 123 127 130 122 119 120 117 116 115 113 110 108 108 110 108 103 99 93
223 226 221 224 228 211 212 229 233 238 231 227 232 227 221 226 213 196 212 233 243 236 210 205 212 210 201 189 187 193 186 161 158 164 167 169 170 172 171 171 176 179 182 186 185 184 186 188 186 182 183 182 180 182 184 183 181 180 181 182 175 166 163 165 163 162 165 167 163 158 157 151 148 156 166 174 160 121 127 132 128 130 127 124 124 119 114 112 110 109 106 105 104 103 103 101 94
214 219 219 221 222 204 206 215 220 236 234 225 225 222 222 229 224 213 210 220 233 239 223 204 205 208 197 194 193 185 179 167 157 159 163 167 169 172 172 171 176 180 183 186 183 178 182 188 187 183 183 183 182 183 185 184 182 183 184 180 173 167 165 167 167 167 168 166 162 159 156 151 154 164 167 169 168 157 153 145 138 139 134 129 127 123 118 116 114 112 110 108 107 105 105 104 96
208 213 218 218 209 196 203 208 212 225 230 225 218 214 221 228 222 219 217 222 225 225 225 206 193 200 195 192 195 182 177 172 159 158 160 162 170 173 173 173 176 183 183 182 180 177 182 189 188 185 184 185 185 186 186 185 183 185 185 179 173 168 167 168 168 170 171 167 164 164 159 155 162 170 171 171 170 169 164 157 150 143 137 132 130 125 118 116 116 113 112 110 106 104 105 104 98
208 213 218 225 218 204 207 205 204 211 215 220 218 212 218 219 226 226 216 224 231 219 219 208 183 190 191 188 193 186 182 174 155 155 159 162 172 173 172 173 176 183 182 179 179 176 182 190 189 185 184 185 187 187 187 186 185 185 183 178 173 170 170 170 168 169 169 166 167 167 160 161 170 173 176 177 172 170 167 163 155 141 139 138 132 127 122 121 121 117 115 112 105 105 106 104 99
205 212 220 226 212 196 214 221 219 220 216 218 220 226 225 211 234 247 222 213 230 238 226 202 180 186 186 183 190 185 177 159 146 155 163 166 170 170 172 174 175 181 181 181 181 178 182 188 188 187 186 184 185 187 187 187 183 181 179 176 173 171 170 168 166 167 166 166 169 167 164 169 172 171 177 175 169 171 169 164 157 145 141 139 132 130 126 124 124 119 115 110 103 101 101 100 99
201 210 220 219 207 199 209 223 226 229 227 226 220 224 231 220 225 235 224 204 213 239 240 198 176 185 184 179 186 182 165 145 146 159 165 167 168 169 175 175 174 180 183 184 186 184 183 184 185 188 186 183 184 186 186 185 180 176 175 175 173 171 169 167 166 166 165 166 169 167 168 171 167 164 171 169 167 172 169 163 158 148 142 139 134 132 128 125 123 117 113 111 108 106 102 99 97
217 208 210 211 213 218 223 212 211 215 218 220 219 220 221 224 221 215 223 221 207 222 234 195 168 183 184 174 177 175 163 151 155 163 163 165 168 169 175 177 177 182 184 184 187 188 186 184 185 187 185 183 184 185 184 181 176 174 173 174 174 171 168 167 168 167 164 165 168 169 166 163 160 162 167 167 167 169 166 163 158 149 144 140 136 133 128 125 122 118 116 114 111 109 107 103 101
239 224 208 209 214 219 224 223 208 209 215 210 215 223 221 219 225 202 213 230 220 214 218 182 170 193 184 164 163 167 167 159 159 162 161 166 171 171 175 177 178 181 183 184 186 188 188 186 186 187 185 183 182 182 182 178 175 174 173 175 175 172 168 166 167 167 165 165 168 169 165 160 159 167 170 165 167 168 166 162 157 151 148 142 138 134 129 128 126 122 119 115 112 111 110 107 106
237 236 214 212 224 221 215 222 225 215 222 220 212 223 224 220 228 210 205 218 217 218 214 174 176 195 175 156 162 173 179 168 158 157 162 169 173 173 175 177 178 179 181 184 185 186 188 186 185 187 186 182 181 180 179 176 175 174 174 174 173 172 170 166 166 166 165 165 168 169 170 169 166 169 173 169 169 171 167 164 159 154 150 144 140 136 131 131 126 121 120 118 117 116 113 111 110
223 231 215 210 220 228 221 215 224 223 223 228 221 224 223 216 221 220 218 213 199 210 219 178 178 189 164 154 168 183 187 168 155 156 162 167 170 170 173 178 179 177 178 183 184 185 187 187 187 187 185 180 179 179 177 176 175 173 172 171 169 170 169 165 165 166 164 164 167 166 167 171 167 165 171 172 174 174 169 165 162 157 152 146 143 139 135 132 126 124 126 123 123 122 119 120 120
211 217 219 217 211 219 229 216 214 221 229 239 236 233 226 212 211 219 222 202 179 210 223 183 185 198 173 164 177 183 178 158 152 157 159 161 165 166 169 176 180 178 177 182 186 186 187 188 189 188 184 179 178 178 176 175 175 171 169 169 167 167 168 165 164 165 164 165 167 165 162 164 165 166 170 173 174 173 170 167 162 157 154 149 145 142 138 135 132 132 130 128 130 130 128 129 130
Height
765 766 765 769 768 770 771 770 787 780 777 788 775 776 771 754 753 766 780 774 771 762 747 748 746 746 753 762 768 770 774 780 785 793 803 790 778 783 783 784 788 790 794 797 798 800 802 803 804 806 808 808 810 812 813 814 815 817 817 819 819 821 821 822 823 824 825 826 827 827 827 827 828 828 828 828 828 829 829 829 829 830 829 829 829 829 829 830 830 831 832 832 832 832 832 832 833
765 765 763 766 765 771 769 764 790 784 779 791 771 767 760 745 748 761 773 770 766 758 752 750 745 748 749 751 757 768 777 775 776 782 783 779 780 783 784 787 789 791 794 797 799 801 802 804 805 806 808 809 810 812 813 814 816 817 818 819 820 821 822 823 823 825 825 826 827 827 828 828 828 828 828 829 829 829 830 830 831 831 831 831 831 830 830 830 831 831 832 832 832 833 833 833 833
767 765 763 765 761 764 764 763 786 788 787 791 772 759 751 752 752 750 754 755 752 748 751 749 747 749 748 756 762 774 783 775 773 777 779 780 782 783 786 789 790 793 794 798 800 801 803 804 805 806 807 809 810 812 813 815 816 817 818 819 820 821 822 823 824 825 826 827 827 828 828 828 829 829 829 829 829 830 830 831 832 832 832 832 832 832 832 832 831 832 832 832 833 834 834 834 834
768 766 764 766 766 765 768 774 780 783 789 784 773 758 748 755 750 743 744 746 745 743 745 748 754 748 749 766 766 773 781 775 774 776 780 781 782 785 787 790 792 795 796 798 800 802 803 804 806 806 808 809 810 812 813 815 816 817 818 819 820 821 823 824 824 825 826 827 828 828 828 829 829 829 830 830 830 831 831 832 832 833 834 834 834 834 834 833 833 833 833 833 833 834 835 835 835
769 767 766 767 775 774 775 782 776 778 782 771 769 759 747 747 746 745 743 746 744 743 745 748 758 749 751 765 764 777 782 775 774 774 779 781 783 786 787 791 793 795 797 798 800 802 803 805 806 807 808 810 811 812 814 815 816 818 819 820 821 822 823 824 825 825 826 827 828 829 829 829 830 830 830 831 831 831 832 832 833 834 834 835 835 835 835 835 835 835 834 834 834 835 835 835 836
769 767 764 765 771 771 781 791 783 779 767 756 765 761 750 743 742 745 744 746 743 743 744 745 754 754 764 767 765 776 776 775 777 776 780 783 785 787 789 792 794 796 797 799 801 802 804 806 807 808 809 810 812 813 814 815 816 818 819 820 821 822 823 824 825 826 826 828 828 829 829 829 830 830 831 831 831 832 832 832 833 834 834 835 835 836 836 836 836 836 836 835 835 835 836 836 836
771 772 767 770 771 770 789 796 786 781 760 749 760 757 749 744 743 747 748 749 747 744 744 745 746 759 776 771 772 775 771 774 775 779 782 784 787 787 790 791 794 796 797 800 801 803 805 807 808 809 810 811 812 813 814 816 817 818 820 821 821 822 823 825 825 826 827 828 829 829 829 830 830 830 831 831 832 832 832 833 834 834 835 835 836 837 836 836 836 837 837 837 837 836 837 837 837
772 776 772 780 786 780 789 790 781 777 763 750 753 753 746 744 746 750 751 750 752 748 745 746 741 766 782 770 780 778 770 775 775 782 784 785 788 788 790 791 794 796 798 800 802 804 806 808 809 810 811 812 813 814 815 816 818 819 820 821 822 823 824 825 826 826 827 828 828 829 830 830 830 831 831 831 832 832 833 834 834 834 835 835 836 837 837 837 837 837 837 838 838 838 838 838 838
769 774 775 786 796 793 791 788 779 769 765 757 751 751 746 746 750 752 751 748 750 748 747 745 746 775 785 775 785 777 771 778 779 784 784 787 788 789 791 791 794 796 798 801 803 805 806 809 810 811 811 813 814 815 816 817 819 819 821 822 822 823 824 825 826 826 827 828 828 829 830 830 831 831 831 832 832 832 833 834 835 835 835 836 836 837 838 838 838 838 838 838 838 839 839 839 839
770 772 778 789 795 801 800 791 780 768 764 759 753 749 745 747 752 753 753 750 748 749 747 741 752 775 781 783 787 778 776 779 781 785 785 788 788 790 792 792 795 796 799 801 804 806 807 810 810 812 812 813 815 816 817 818 819 820 822 822 823 823 824 826 826 827 827 828 828 829 829 830 830 831 832 832 833 833 833 834 835 836 836 837 837 837 838 839 839 839 839 839 839 839 839 839 839
779 774 777 793 797 803 805 794 782 771 762 755 755 751 746 745 750 753 751 752 750 750 747 743 760 772 775 784 785 778 778 779 782 784 785 787 789 791 792 793 796 797 800 801 805 806 807 810 811 812 813 815 815 816 818 818 820 821 822 823 823 824 824 825 826 827 827 828 828 829 829 829 830 830 831 832 833 834 834 835 836 837 837 838 838 838 838 839 840 840 840 840 840 839 839 840 840
788 783 781 797 799 799 799 792 783 774 766 760 758 749 742 742 750 757 754 755 751 751 749 748 759 764 777 788 782 777 776 780 782 783 785 787 789 791 793 795 797 799 801 802 805 806 808 810 812 813 814 815 816 817 818 819 821 821 823 823 824 824 825 826 826 827 827 828 828 828 829 829 830 830 831 832 833 834 835 835 836 837 838 838 839 839 839 840 840 840 841 841 841 840 840 840 840
785 785 786 795 792 793 792 788 784 780 774 764 755 744 741 745 752 755 754 754 750 756 753 746 751 760 781 788 779 777 777 780 782 784 785 786 790 792 794 796 798 800 801 803 805 807 809 811 812 814 815 816 817 818 819 820 821 821 823 823 824 824 825 826 826 827 827 827 828 828 829 829 830 830 831 832 833 834 835 836 836 837 838 839 839 839 840 840 841 841 841 841 841 841 841 841 841
777 778 784 791 785 787 787 788 787 785 779 762 750 742 741 746 749 747 750 755 751 754 750 740 746 763 783 787 784 781 779 781 782 784 785 788 791 792 796 797 798 800 802 803 805 808 810 812 813 814 815 816 817 818 819 820 821 822 823 823 824 825 825 826 826 827 826 827 827 828 828 829 830 830 831 832 833 835 836 836 836 837 838 839 839 840 840 840 841 841 842 842 841 842 842 842 842
771 772 779 787 784 784 783 785 785 785 778 759 749 745 744 742 741 743 746 755 749 741 744 741 744 764 779 783 787 781 778 781 781 784 786 789 791 794 797 798 799 800 802 804 805 809 810 812 813 814 815 816 817 818 819 820 821 822 823 824 824 825 825 826 826 826 826 827 827 828 829 829 830 830 831 832 833 835 836 836 837 837 838 838 839 840 840 841 841 841 842 842 842 842 842 842 842
765 770 780 787 787 785 779 777 780 783 774 757 748 747 752 744 736 742 739 742 745 737 743 749 749 762 770 773 777 774 777 780 781 784 786 789 791 795 797 797 800 801 803 804 806 809 810 812 813 814 815 816 817 818 819 820 821 822 823 824 824 825 825 825 826 826 827 827 827 828 829 830 831 831 832 833 833 835 836 836 837 837 838 838 839 840 840 841 841 841 842 842 842 842 842 842 842
763 772 784 786 785 783 776 772 773 775 767 757 752 752 759 754 740 738 733 734 746 745 746 752 752 757 763 767 769 770 776 779 780 784 785 790 792 794 797 797 799 801 804 805 806 809 810 812 813 814 815 816 817 817 819 820 821 822 823 823 824 825 825 825 826 826 827 827 828 829 830 831 831 832 832 833 834 835 836 836 836 837 838 838 839 840 840 841 841 841 841 841 841 841 842 842 842
768 777 783 784 781 776 769 764 760 760 759 754 751 752 759 760 748 739 739 744 748 750 749 752 755 756 760 765 768 770 774 777 780 782 785 790 792 794 795 796 799 802 804 805 807 808 810 811 812 814 814 815 816 817 819 819 821 822 822 823 824 825 824 825 826 827 828 828 829 829 830 831 832 833 833 834 834 835 836 836 837 837 838 838 839 839 840 840 841 841 841 841 841 841 842 842 843
771 773 775 777 773 765 758 754 750 750 753 751 746 748 755 757 749 740 748 755 752 757 755 755 761 761 763 765 768 771 772 776 779 781 785 789 791 793 793 795 798 801 803 805 807 808 809 810 811 813 814 815 816 817 818 819 820 821 822 823 823 824 824 825 826 827 828 828 829 830 831 832 834 834 834 835 835 836 837 837 838 838 838 839 839 839 840 840 840 840 840 841 841 841 841 842 843
767 767 771 770 762 757 753 750 749 747 747 750 747 746 752 750 744 742 751 756 755 761 761 761 767 764 765 766 767 771 773 776 779 781 784 787 790 792 792 794 797 800 802 804 806 807 808 809 811 812 813 815 815 817 818 819 820 821 822 823 823 824 824 825 826 827 828 829 830 831 832 834 835 835 836 837 837 838 838 838 839 839 839 839 839 839 839 839 839 840 840 840 841 841 842 842 843
762 762 768 763 756 755 750 747 747 744 743 748 746 747 752 743 740 743 748 758 762 760 756 757 762 761 761 764 766 769 772 776 779 782 783 785 789 791 792 793 796 799 801 803 805 806 806 808 810 811 813 814 815 816 817 819 820 821 822 822 823 823 824 825 826 827 828 830 831 832 833 834 836 837 838 839 839 840 840 840 840 840 840 840 840 840 840 840 840 840 840 840 841 842 842 843 844
759 757 757 755 754 754 748 744 743 740 742 746 746 749 750 741 742 743 745 759 761 752 747 744 748 755 758 761 766 768 772 775 778 781 781 784 787 789 791 792 795 798 800 802 803 804 805 807 809 810 812 814 815 816 817 818 819 821 821 822 823 823 824 825 827 828 829 830 831 832 834 835 837 838 839 840 841 841 841 842 841 841 841 841 841 841 841 841 841 841 840 840 841 841 842 843 843
757 755 749 749 750 751 747 742 741 739 743 747 745 746 744 743 747 742 742 751 746 738 738 740 744 752 757 760 765 769 772 775 777 779 780 782 785 786 789 791 793 796 798 800 802 804 804 806 808 809 811 813 814 816 817 818 819 821 821 822 822 823 824 825 827 828 829 830 831 833 834 836 837 838 840 841 841 841 842 843 842 843 843 843 843 842 842 842 842 841 841 841 840 840 841 842 842
753 753 745 744 745 747 745 740 739 739 744 743 738 742 744 746 749 744 742 742 737 734 736 740 744 748 753 759 765 768 771 774 775 778 778 781 783 784 787 789 792 794 796 798 800 802 804 805 808 809 811 813 814 815 816 817 819 820 821 821 821 822 824 825 826 827 829 830 831 833 834 836 837 839 840 840 841 841 842 843 843 843 844 844 844 843 843 843 843 842 841 840 838 839 840 841 841
747 747 742 740 740 740 739 739 741 741 742 738 735 742 744 743 746 746 743 738 734 734 735 738 741 744 748 754 763 767 770 772 774 776 777 779 781 782 786 788 790 792 793 796 798 800 803 805 806 809 810 812 813 814 815 817 818 819 820 821 821 822 823 825 826 827 828 830 831 833 834 836 837 838 839 840 840 840 840 841 840 842 844 845 845 843 843 843 842 842 842 840 839 840 841 841 841
741 739 738 738 737 735 735 737 740 741 739 737 738 742 740 736 742 747 740 734 731 731 733 735 738 743 747 753 761 765 769 770 772 774 776 778 781 782 784 787 789 791 793 795 797 799 802 804 805 808 809 811 813 813 815 816 817 818 819 820 820 822 823 824 825 827 828 830 831 833 834 836 836 837 838 839 839 838 838 837 837 839 843 845 844 842 842 842 842 842 841 840 841 842 841 842 842
734 733 733 735 735 731 733 735 735 737 736 736 740 741 737 731 739 748 738 730 728 730 734 734 735 739 746 757 761 763 766 768 770 773 775 777 780 782 783 786 789 790 792 794 796 798 801 803 804 806 808 810 812 813 814 815 816 818 819 820 820 821 823 824 825 826 828 830 831 833 834 835 836 837 838 839 839 839 838 838 838 839 842 845 845 843 843 843 841 841 840 840 841 841 841 842 842
731 731 732 731 732 731 732 733 730 732 734 734 737 738 734 731 736 740 734 728 727 731 735 735 736 738 743 754 758 760 764 766 769 771 773 776 779 781 782 785 788 790 791 793 795 798 800 802 803 805 807 809 811 812 814 814 816 817 818 819 819 821 822 823 824 826 828 829 831 832 834 834 835 836 838 840 840 840 839 840 841 841 842 844 845 845 846 846 843 841 840 840 840 841 841 841 841
730 731 736 734 730 731 733 732 727 730 732 726 731 743 739 733 733 729 727 727 726 730 736 737 739 739 742 750 754 758 761 763 767 769 771 775 778 780 782 785 788 788 790 793 794 797 799 801 803 804 805 809 810 811 813 814 815 816 818 818 819 820 821 822 824 826 827 829 830 832 833 833 835 836 837 839 840 840 840 841 841 841 841 841 841 843 846 849 846 842 840 840 840 840 840 840 841
733 730 735 737 735 731 728 728 724 728 730 717 728 754 749 733 727 721 722 727 728 731 736 739 742 742 742 748 753 757 760 762 764 768 771 773 777 779 781 785 787 788 790 792 793 795 798 800 802 803 804 807 809 811 812 813 814 816 817 818 818 819 821 822 824 825 827 828 830 831 831 832 834 834 835 837 838 839 840 840 840 839 839 840 840 840 844 846 844 841 840 840 839 840 840 840 840
734 734 733 737 743 734 720 721 723 728 728 714 728 754 748 733 725 716 718 725 729 732 735 739 744 744 743 746 752 755 757 759 761 766 770 772 776 779 782 784 786 788 790 791 792 794 797 799 801 802 804 806 808 810 811 812 814 815 816 817 818 819 820 822 823 825 827 828 829 830 830 831 833 833 834 836 836 837 838 838 839 838 838 838 838 839 842 843 842 841 840 839 839 839 839 839 839
732 741 743 737 739 732 716 715 719 723 723 715 725 742 738 730 722 712 716 723 728 732 733 736 742 743 743 745 749 752 754 755 758 763 768 772 776 779 781 783 785 787 788 790 792 793 796 798 800 802 804 806 808 809 810 812 813 814 816 816 817 819 820 822 823 825 826 827 828 829 830 831 832 832 833 834 835 836 837 837 838 838 838 837 836 838 841 841 841 840 839 838 838 838 838 838 838
734 739 747 737 731 731 723 717 711 708 714 718 723 729 732 729 718 712 716 721 726 731 731 734 739 741 741 744 745 748 751 754 757 761 766 771 776 779 781 782 784 786 788 790 791 793 795 797 799 801 803 805 807 808 810 811 812 814 815 816 817 818 820 821 823 824 825 826 827 828 829 830 831 831 832 833 833 834 836 837 837 838 838 838 837 839 840 840 839 839 838 838 837 837 837 837 837
738 733 734 728 723 726 726 722 704 694 709 725 725 719 723 727 718 714 717 721 726 729 730 732 735 738 740 741 743 745 750 754 756 759 763 768 773 779 781 782 783 785 787 789 791 793 795 796 798 800 802 804 805 807 808 810 811 813 814 815 816 817 819 821 822 823 824 825 826 827 828 829 830 831 831 831 832 833 835 836 837 837 838 838 839 840 840 839 839 838 837 837 837 837 836 836 836
735 730 727 725 720 716 720 718 700 696 714 728 729 717 715 725 722 716 715 718 725 726 726 730 732 735 738 740 742 745 748 752 754 756 760 764 770 776 780 782 783 784 787 789 791 793 794 796 797 799 800 802 804 806 807 809 810 812 814 814 816 817 819 820 821 822 823 824 826 827 828 829 830 830 830 831 832 833 835 836 837 837 837 838 839 839 839 838 838 837 837 836 837 836 836 836 835
724 723 722 723 718 710 714 713 699 706 722 722 721 715 713 727 727 718 715 715 720 723 722 726 729 730 734 738 739 742 746 749 751 753 757 761 767 772 778 782 782 783 786 788 790 792 794 794 795 797 799 800 802 804 806 808 810 811 813 814 815 816 818 819 821 822 823 824 824 826 828 829 831 831 831 832 833 834 835 835 835 835 836 837 838 838 837 837 836 836 836 836 836 836 836 836 835
719 718 718 716 715 715 716 712 700 707 721 715 711 713 716 726 726 718 715 715 719 720 720 724 727 728 732 735 736 740 745 747 748 752 757 760 765 769 775 780 782 783 785 787 789 791 792 793 794 795 797 799 800 802 804 806 808 810 811 813 814 815 817 819 820 821 822 823 824 825 827 829 830 832 833 834 836 837 837 836 836 836 837 837 837 837 837 836 836 836 835 835 835 835 836 836 835
721 719 717 715 715 715 710 705 700 703 714 714 710 716 720 722 723 715 710 714 718 717 718 721 724 726 729 731 734 738 742 745 748 752 756 759 764 768 772 777 780 781 783 786 787 790 791 792 793 794 795 797 798 800 802 804 807 808 810 812 813 815 816 818 819 821 822 823 823 825 826 828 830 832 833 835 836 837 838 837 837 837 837 837 837 837 837 836 836 835 835 835 834 835 835 836 836
725 720 719 718 711 709 707 703 700 700 707 711 707 712 715 711 712 711 708 709 710 710 713 717 721 725 728 730 732 736 741 745 748 751 754 758 762 766 771 774 777 780 782 784 786 788 790 791 791 792 793 795 797 798 800 803 805 807 809 811 813 814 815 817 819 820 821 822 823 824 825 827 829 830 832 834 835 836 837 837 837 837 837 836 836 837 836 835 835 834 834 834 834 834 835 836 836
727 722 722 718 707 709 714 707 701 698 700 705 704 706 706 702 701 704 705 702 699 702 708 712 716 721 724 726 727 732 739 744 746 749 753 757 761 765 768 771 775 778 780 782 785 787 787 788 789 790 791 793 795 798 800 802 805 806 808 810 811 812 814 816 817 819 820 821 822 823 824 825 827 828 830 832 833 834 835 835 835 835 835 835 835 835 835 835 834 834 834 834 834 834 834 835 835
727 721 719 716 708 705 705 702 699 698 697 696 701 709 708 702 701 700 698 699 696 696 704 709 712 715 718 719 722 725 731 737 742 747 750 754 759 762 765 768 773 777 778 780 782 784 785 786 788 788 789 791 793 796 799 801 804 806 807 808 809 811 813 815 817 819 820 821 822 823 824 825 826 828 829 831 831 832 832 832 833 833 833 834 834 834 834 834 834 834 834 834 834 833 833 834 835
726 716 711 711 708 700 697 699 699 704 707 695 697 718 717 699 696 697 693 698 700 695 700 706 706 710 714 716 717 719 724 729 734 740 744 749 755 759 762 765 770 774 776 778 780 782 784 784 786 787 788 789 791 794 797 800 802 804 805 805 806 809 812 814 816 818 819 820 821 822 823 825 826 827 828 829 830 831 831 831 831 832 832 833 833 833 834 834 834 834 834 834 833 833 834 834 835
723 713 707 709 706 699 696 697 698 706 708 692 689 712 719 702 694 693 689 695 699 694 696 699 700 704 709 712 712 714 721 725 729 735 739 745 751 755 758 761 765 770 773 775 778 780 781 782 783 785 786 788 790 793 796 798 801 803 804 804 805 808 811 813 815 816 817 819 820 822 823 825 826 827 828 828 829 830 830 830 831 831 832 832 832 833 833 833 833 833 833 833 833 833 834 835 835
719 706 705 708 705 702 698 694 694 695 693 687 681 693 710 708 695 685 683 691 697 696 695 694 695 700 702 706 707 709 716 721 725 732 735 739 745 749 753 757 761 766 770 773 775 777 779 780 782 783 785 787 788 791 794 797 799 801 802 803 805 807 810 812 814 815 816 818 819 821 823 824 825 826 827 828 828 829 829 830 830 831 831 832 832 832 832 832 832 832 832 832 833 833 834 835 835
712 700 699 701 701 702 698 695 693 688 691 695 685 684 703 707 689 677 680 690 696 694 692 690 690 694 698 701 703 704 709 714 718 725 729 733 738 744 749 754 759 764 767 769 772 774 777 779 781 782 784 786 787 789 793 795 797 799 800 802 804 807 809 812 813 814 815 817 818 821 822 824 824 825 826 828 828 828 829 829 830 830 831 831 832 832 832 832 832 832 832 832 833 834 834 835 836
705 699 695 694 698 699 696 695 691 690 700 703 689 683 697 700 684 677 685 692 690 687 686 685 684 687 691 694 697 699 701 707 713 718 724 729 734 740 745 751 757 761 764 767 770 772 775 777 779 780 783 784 786 789 791 794 796 797 799 801 803 805 808 810 812 813 814 816 818 820 822 823 823 825 826 827 828 828 828 829 829 830 831 831 831 831 832 832 832 832 832 833 834 834 835 835 836
700 700 697 697 697 693 695 696 693 703 711 701 685 673 681 695 687 680 688 688 681 679 681 682 680 680 683 686 690 694 697 703 710 716 722 729 736 740 744 749 755 759 763 765 767 769 771 775 777 779 781 783 785 787 789 792 794 795 797 800 802 803 806 809 810 812 814 816 818 819 821 822 823 824 825 826 827 827 827 828 829 830 831 831 831 832 832 832 832 832 833 833 834 835 836 836 837
700 700 700 706 704 695 703 705 704 718 716 696 680 667 675 697 693 682 684 680 673 673 674 677 678 676 677 681 684 689 693 699 708 716 723 730 737 741 743 747 752 757 760 762 764 765 769 773 774 776 779 781 783 786 788 790 792 794 796 798 800 802 804 806 808 810 812 814 816 818 820 821 822 824 825 826 826 827 827 828 830 830 831 831 831 832 832 832 833 833 834 834 835 835 836 837 837
699 699 701 716 718 713 720 719 714 718 709 687 676 673 682 692 684 674 673 672 670 667 663 665 671 672 674 678 681 684 690 697 706 715 721 727 735 739 740 744 749 753 756 758 760 762 766 770 772 774 777 779 781 784 786 788 789 792 794 796 798 800 802 805 807 809 811 813 814 816 818 820 821 823 825 826 826 827 828 829 830 830 830 831 831 832 833 833 833 833 834 835 835 836 837 837 838
698 700 704 715 719 727 736 726 718 717 704 682 670 677 691 688 674 664 663 663 661 657 654 654 660 666 670 672 676 681 686 694 704 713 719 725 731 735 738 741 746 750 752 754 757 759 763 767 769 772 774 777 780 782 784 786 788 790 792 795 797 799 801 803 805 808 810 811 813 815 817 818 820 823 824 825 826 827 828 829 830 830 830 831 832 832 833 833 834 834 835 835 836 837 837 838 839
697 692 696 705 706 719 730 720 717 718 703 685 676 682 691 685 670 656 652 653 649 646 646 647 651 658 663 667 671 677 684 691 700 709 717 723 727 732 735 738 742 746 749 751 754 757 761 764 766 769 772 775 778 780 782 784 786 788 791 793 795 797 799 802 804 806 808 810 812 814 816 818 820 822 824 825 826 827 828 829 830 830 831 832 832 833 833 834 834 834 835 836 837 838 838 839 841
696 687 695 701 693 702 716 711 705 706 703 694 686 683 675 667 662 650 645 648 646 644 642 642 648 653 658 665 669 674 682 689 698 706 714 719 723 728 732 735 739 743 746 748 751 754 757 760 763 766 769 772 775 777 780 782 784 787 789 791 794 796 798 800 802 805 807 809 812 813 815 818 820 822 823 824 826 827 828 829 830 831 832 832 833 833 834 834 834 835 836 837 838 839 839 840 842
698 695 700 693 680 689 710 714 702 701 713 704 689 685 674 666 666 651 643 649 648 646 641 638 645 650 655 663 667 671 680 688 696 702 709 715 719 724 728 731 735 739 742 745 748 751 754 757 760 763 767 770 772 775 778 780 782 785 787 789 792 794 797 799 801 803 806 808 811 813 815 818 819 821 823 823 825 827 828 829 831 831 832 833 833 834 834 835 835 836 836 837 838 839 840 842 843
698 702 696 684 681 686 696 711 711 710 720 708 690 690 685 683 679 655 646 651 648 646 641 637 644 650 655 661 664 669 677 686 693 697 705 711 715 719 723 728 732 735 738 742 745 749 752 755 758 760 763 766 769 772 775 778 780 783 785 787 790 792 795 798 800 802 805 807 810 813 815 817 818 821 822 823 825 827 828 830 831 832 833 833 834 834 835 835 835 836 837 838 839 840 841 843 844
691 691 681 682 698 700 694 706 715 715 718 708 695 690 682 680 675 658 654 655 648 644 641 640 647 652 655 659 664 668 674 683 690 694 701 708 712 715 718 724 729 733 737 740 744 748 750 753 756 758 761 763 766 770 772 775 778 781 783 785 788 791 793 796 799 801 804 806 810 812 814 816 818 820 821 823 825 827 828 830 831 832 833 833 834 834 835 835 836 837 838 839 840 841 842 844 845
688 685 678 680 692 695 691 696 703 709 715 711 704 696 680 667 657 651 655 651 645 645 642 642 649 651 653 659 664 669 673 678 685 691 697 703 707 710 713 719 725 730 735 739 743 745 747 750 753 756 759 762 764 767 769 773 776 779 781 783 786 789 792 795 797 800 803 805 809 811 812 814 816 819 820 822 825 827 828 830 831 832 833 833 834 835 835 836 837 838 839 840 841 842 844 845 846
694 693 688 686 685 683 685 686 686 695 709 713 711 703 681 656 644 644 646 640 638 642 641 642 647 648 651 657 662 667 669 672 679 686 692 698 703 707 711 716 721 727 732 737 740 743 745 748 750 753 756 758 761 764 767 770 774 777 779 782 785 788 791 794 796 799 802 804 807 809 811 813 816 818 820 822 825 827 828 830 831 832 833 834 834 835 836 837 838 839 840 841 842 843 844 845 847
690 693 690 686 685 686 695 699 686 683 698 705 705 702 677 645 635 636 634 632 635 638 638 641 645 646 650 655 659 662 665 669 676 682 689 695 701 705 710 715 720 725 729 734 738 740 743 745 747 749 752 755 758 762 765 768 772 775 778 780 783 786 789 792 795 798 800 802 806 808 810 813 816 818 820 822 825 826 828 830 831 832 832 834 835 835 837 837 838 839 840 842 843 844 845 846 847